Location: Ch�tillon
(48.8024°N, 2.2935°E)
Time: 20:28:45
(UTC+00:00)

Cosmos 1697 Rocket - Pass Details

Date: 29 May 2022
Orbit: 833 x 843 km, 71.0° (Epoch: 30 June)

Event Time Altitude Azimuth Distance (km) Brightness Sun altitude
Rises 21:37:34 0° 257° (WSW) 3,397 6.1 -13.7°
Reaches altitude 10° 21:40:42 10° 275° (W) 2,465 5.6 -13.9°
Maximum altitude 21:44:46 20° 321° (NW) 1,870 5.6 -14.3°
Drops below altitude 10° 21:48:51 10° 7° (N) 2,471 6.0 -14.6°
Sets 21:52:01 0° 25° (NNE) 3,408 6.4 -14.8°
